Prague, Czech Republic

10:45 PM CEST on June 22, 2017 (GMT +0200)
Ruzyne

Weather History for LKPR - December, 2012

Change the Weather History Date:

Wednesday, December 5, 2012

  Actual Average Record
Temperature  
Mean Temperature 30 °F -  
Max Temperature 33 °F 35 °F 55 °F (2006)
Min Temperature 26 °F 25 °F 8 °F (2010)
Degree Days  
Heating Degree Days 36    
Moisture  
Dew Point 28 °F    
Average Humidity 86    
Maximum Humidity 93    
Minimum Humidity 57    
Precipitation  
Precipitation 0.01 in 0.03 in - ()
Sea Level Pressure  
Sea Level Pressure 29.53 in    
Wind  
Wind Speed 11 mph ()    
Max Wind Speed 23 mph    
Max Gust Speed -    
Visibility 6.5 miles    
Events Snow    
Averages and records for this station are not official NWS values.
T = Trace of Precipitation, MM = Missing Value Source: Averaged Metar Reports

Daily Weather History Graph

Daily Weather History Graph

Search for Another Location

Airport or City:

Trip Planner

Search our weather history database for the weather conditions in past years. The results will help you decide how hot, cold, wet, or windy it might be!

Date:

Astronomy

Dec. 05, 2012 Rise Set
Actual Time 7:45 AM CET 4:01 PM CET
Civil Twilight 7:07 AM CET 4:39 PM CET
Nautical Twilight 6:26 AM CET 5:20 PM CET
Astronomical Twilight 5:47 AM CET 5:59 PM CET
Moon 11:01 PM CET (12/5) 11:34 AM CET (12/5)
Length of Visible Light 9h 31m
Length of Day
8h 16m
Waning Gibbous, 62% of the Moon is Illuminated
Dec 5
Waning Gibbous
Dec 6
Last Quarter
Dec 13
New
Dec 20
First Quarter
Dec 28
Full

Hourly Weather History & Observations

Time (CET) Temp. Windchill Dew Point Humidity Pressure Visibility Wind Dir Wind Speed Gust Speed Precip Events Conditions
12:00 AM 33.8 °F 21.6 °F 28.4 °F 81% 29.42 in 6.2 mi SW 23.0 mph - N/A   Partly Cloudy
12:30 AM 33.8 °F 22.5 °F 30.2 °F 87% 29.42 in 6.2 mi SW 19.6 mph - N/A   Partly Cloudy
1:00 AM 33 °F - 30 °F 84% 29.49 in 16 mi WSW 15.7 mph - -   Mostly Cloudy
1:00 AM 33.8 °F 23.5 °F 30.2 °F 87% 29.42 in 6.2 mi SW 16.1 mph - N/A   Mostly Cloudy
1:30 AM 33.8 °F 23.5 °F 30.2 °F 87% 29.42 in 6.2 mi SW 16.1 mph - N/A   Mostly Cloudy
2:00 AM 33.8 °F 23.5 °F 30.2 °F 87% 29.44 in 6.2 mi SW 16.1 mph - N/A   Mostly Cloudy
2:30 AM 33.8 °F 23.5 °F 30.2 °F 87% 29.44 in 6.2 mi SW 16.1 mph - N/A   Mostly Cloudy
3:00 AM 33.8 °F 23.9 °F 30.2 °F 87% 29.44 in 6.2 mi SW 15.0 mph - N/A   Mostly Cloudy
3:30 AM 33.8 °F 23.5 °F 30.2 °F 87% 29.44 in 6.2 mi SW 16.1 mph - N/A   Partly Cloudy
4:00 AM 33.8 °F 24.8 °F 30.2 °F 87% 29.42 in 6.2 mi SW 12.7 mph - N/A   Partly Cloudy
4:30 AM 33.8 °F 25.3 °F 30.2 °F 87% 29.42 in 6.2 mi SW 11.5 mph - N/A   Partly Cloudy
5:00 AM 32.0 °F 22.5 °F 30.2 °F 93% 29.42 in 6.2 mi SW 12.7 mph - N/A   Partly Cloudy
5:30 AM 32.0 °F 21.6 °F 30.2 °F 93% 29.44 in 6.2 mi SW 15.0 mph - N/A   Partly Cloudy
6:00 AM 32.0 °F 22.5 °F 28.4 °F 87% 29.44 in 6.2 mi WSW 12.7 mph - N/A   Mostly Cloudy
6:30 AM 32.0 °F 23.0 °F 28.4 °F 87% 29.44 in 6.2 mi West 11.5 mph - N/A   Mostly Cloudy
7:00 AM 33 °F - 29 °F 82% 29.52 in 16 mi NW 6.7 mph - -   Mostly Cloudy
7:00 AM 32.0 °F 25.6 °F 30.2 °F 93% 29.44 in 6.2 mi WNW 6.9 mph - N/A   Mostly Cloudy
7:15 AM 32.0 °F 25.6 °F 30.2 °F 93% 29.47 in 5.0 mi WNW 6.9 mph - N/A Snow Light Snow
7:30 AM 32.0 °F 24.8 °F 30.2 °F 93% 29.47 in 2.8 mi WNW 8.1 mph - N/A Snow Snow
8:00 AM 32.0 °F 24.8 °F 30.2 °F 93% 29.47 in 2.5 mi West 8.1 mph - N/A Snow Light Snow
8:30 AM 32.0 °F 24.8 °F 30.2 °F 93% 29.50 in 6.2 mi West 8.1 mph - N/A Snow Light Snow
9:00 AM 32.0 °F 25.6 °F 28.4 °F 87% 29.50 in 6.2 mi West 6.9 mph - N/A Snow Light Snow
9:30 AM 32.0 °F 26.4 °F 28.4 °F 87% 29.50 in 6.2 mi West 5.8 mph - N/A   Scattered Clouds
10:00 AM 32.0 °F 25.6 °F 28.4 °F 87% 29.53 in 6.2 mi West 6.9 mph - N/A   Mostly Cloudy
10:30 AM 32.0 °F 25.6 °F 28.4 °F 87% 29.53 in 6.2 mi West 6.9 mph - N/A   Mostly Cloudy
11:00 AM 33.8 °F 26.4 °F 26.6 °F 75% 29.53 in 6.2 mi NW 9.2 mph - N/A   Scattered Clouds
11:30 AM 33.8 °F 25.3 °F 26.6 °F 75% 29.53 in 6.2 mi NNW 11.5 mph - N/A   Scattered Clouds
12:00 PM 32.0 °F 24.8 °F 24.8 °F 75% 29.56 in 6.2 mi NW 8.1 mph - N/A   Scattered Clouds
12:30 PM 32.0 °F 26.4 °F 24.8 °F 75% 29.56 in - NW 5.8 mph - N/A   Clear
1:00 PM 33 °F - 24 °F 57% 29.62 in 44 mi NW 4.5 mph - -   Partly Cloudy
1:00 PM 32.0 °F 28.7 °F 23.0 °F 69% 29.56 in 6.2 mi West 3.5 mph - N/A   Partly Cloudy
1:30 PM 33.8 °F - 23.0 °F 65% 29.56 in - Variable 1.2 mph - N/A   Clear
2:00 PM 33.8 °F - 24.8 °F 70% 29.56 in 6.2 mi Variable 2.3 mph - N/A   Mostly Cloudy
3:30 PM 32.0 °F 27.5 °F 26.6 °F 80% 29.56 in - South 4.6 mph - N/A   Clear
4:00 PM 32.0 °F 27.5 °F 28.4 °F 87% 29.56 in - South 4.6 mph - N/A   Clear
4:30 PM 30.2 °F 25.4 °F 26.6 °F 86% 29.56 in 6.2 mi SSW 4.6 mph - N/A   Mostly Cloudy
5:00 PM 30.2 °F 22.6 °F 26.6 °F 86% 29.56 in - SSW 8.1 mph - N/A   Clear
5:30 PM 30.2 °F 23.4 °F 26.6 °F 86% 29.59 in 6.2 mi SW 6.9 mph - N/A   Scattered Clouds
6:00 PM 30.2 °F 22.6 °F 26.6 °F 86% 29.59 in 6.2 mi SSW 8.1 mph - N/A   Scattered Clouds
6:30 PM 30.2 °F 23.4 °F 28.4 °F 93% 29.59 in 6.2 mi WSW 6.9 mph - N/A   Mostly Cloudy
7:00 PM 31 °F - 28 °F 82% 29.68 in 9 mi WSW 6.7 mph - -   Mostly Cloudy
7:00 PM 30.2 °F 24.3 °F 28.4 °F 93% 29.62 in 6.2 mi WSW 5.8 mph - N/A   Overcast
7:30 PM 30.2 °F 25.4 °F 28.4 °F 93% 29.62 in 6.2 mi West 4.6 mph - N/A   Mostly Cloudy
8:00 PM 28.4 °F 22.2 °F 26.6 °F 93% 29.62 in 6.2 mi WSW 5.8 mph - N/A   Mostly Cloudy
8:30 PM 28.4 °F 21.2 °F 26.6 °F 93% 29.62 in 6.2 mi SSW 6.9 mph - N/A   Partly Cloudy
9:00 PM 26.6 °F 19.1 °F 24.8 °F 93% 29.62 in 6.2 mi SW 6.9 mph - N/A   Partly Cloudy
9:30 PM 28.4 °F 24.6 °F 26.6 °F 93% 29.62 in 6.2 mi SW 3.5 mph - N/A   Partly Cloudy
10:00 PM 26.6 °F 22.6 °F 24.8 °F 93% 29.62 in 6.2 mi SW 3.5 mph - N/A   Mostly Cloudy
10:30 PM 28.4 °F 24.6 °F 26.6 °F 93% 29.65 in 6.2 mi SSW 3.5 mph - N/A   Mostly Cloudy
11:00 PM 28.4 °F - 26.6 °F 93% 29.65 in 6.2 mi South 2.3 mph - N/A   Mostly Cloudy
11:30 PM 30.2 °F 26.7 °F 26.6 °F 86% 29.65 in 6.2 mi South 3.5 mph - N/A   Mostly Cloudy